Location: Bottens
(46.6171°N, 6.6605°E)
Time: 17:19:40
(UTC+00:00)

CZ-2D R/B - Pass Details

Date: 20 June 2021
Orbit: 792 x 845 km, 98.7° (Epoch: 04 August)

Event Time Altitude Azimuth Distance (km) Brightness Sun altitude
Rises 01:32:16 0° 12° (NNE) 3,305 6.8 -15.1°
Reaches altitude 10° 01:34:37 10° 10° (N) 2,370 5.7 -14.9°
Maximum altitude 01:39:48 69° 288° (WNW) 849 2.2 -14.5°
Enters shadow 01:43:17 21° 209° (SSW) 1,710 3.2 -14.2°
